TimeEST,TemperatureF,Dew PointF,Humidity,Sea Level PressureIn,VisibilityMPH,Wind Direction,Wind SpeedMPH,Gust SpeedMPH,PrecipitationIn,Events,Conditions,WindDirDegrees,DateUTC
12:15 AM,33.8,19.4,56,29.94,10.0,NNW,3.5,-,N/A,,Clear,340,2013-03-04 05:15:00
12:35 AM,33.8,19.4,56,29.94,10.0,North,4.6,-,N/A,,Clear,350,2013-03-04 05:35:00
12:55 AM,33.8,19.4,56,29.94,10.0,North,3.5,-,N/A,,Clear,350,2013-03-04 05:55:00
1:15 AM,33.8,19.4,56,29.94,10.0,Calm,Calm,-,N/A,,Clear,0,2013-03-04 06:15:00
1:35 AM,32.0,19.4,60,29.94,10.0,North,4.6,-,N/A,,Clear,350,2013-03-04 06:35:00
1:55 AM,32.0,19.4,60,29.95,10.0,Calm,Calm,-,N/A,,Clear,0,2013-03-04 06:55:00
2:55 AM,30.2,19.4,64,29.94,10.0,NNW,3.5,-,N/A,,Clear,340,2013-03-04 07:55:00
3:15 AM,30.2,19.4,64,29.94,10.0,Calm,Calm,-,N/A,,Clear,0,2013-03-04 08:15:00
3:35 AM,30.2,19.4,64,29.95,10.0,Calm,Calm,-,N/A,,Clear,0,2013-03-04 08:35:00
3:55 AM,30.2,19.4,64,29.96,10.0,WNW,4.6,-,N/A,,Clear,300,2013-03-04 08:55:00
4:15 AM,30.2,21.2,69,29.97,10.0,WNW,4.6,-,N/A,,Mostly Cloudy,290,2013-03-04 09:15:00
4:35 AM,30.2,21.2,69,29.98,10.0,WNW,5.8,-,N/A,,Overcast,300,2013-03-04 09:35:00
4:55 AM,30.2,21.2,69,29.98,10.0,NW,5.8,-,N/A,,Overcast,310,2013-03-04 09:55:00
5:15 AM,30.2,21.2,69,29.99,10.0,NW,4.6,-,N/A,,Overcast,310,2013-03-04 10:15:00
5:35 AM,30.2,21.2,69,30.00,10.0,WNW,5.8,-,N/A,,Overcast,300,2013-03-04 10:35:00
5:55 AM,30.2,19.4,64,30.01,10.0,WNW,4.6,-,N/A,,Overcast,290,2013-03-04 10:55:00
6:15 AM,28.4,19.4,69,30.01,10.0,NW,3.5,-,N/A,,Mostly Cloudy,310,2013-03-04 11:15:00
6:35 AM,28.4,19.4,69,30.02,10.0,WNW,4.6,-,N/A,,Scattered Clouds,300,2013-03-04 11:35:00
6:55 AM,28.4,19.4,69,30.03,10.0,WNW,4.6,-,N/A,,Clear,300,2013-03-04 11:55:00
7:15 AM,30.2,19.4,64,30.04,10.0,WNW,3.5,-,N/A,,Clear,300,2013-03-04 12:15:00
7:35 AM,30.2,17.6,60,30.04,10.0,NW,6.9,-,N/A,,Clear,310,2013-03-04 12:35:00
7:55 AM,32.0,17.6,55,30.05,10.0,WNW,9.2,-,N/A,,Clear,300,2013-03-04 12:55:00
8:15 AM,33.8,17.6,52,30.06,10.0,NW,8.1,-,N/A,,Clear,310,2013-03-04 13:15:00
8:35 AM,33.8,17.6,52,30.06,10.0,WNW,10.4,-,N/A,,Clear,300,2013-03-04 13:35:00
8:55 AM,35.6,17.6,48,30.06,10.0,NW,9.2,-,N/A,,Clear,310,2013-03-04 13:55:00
9:15 AM,35.6,15.8,44,30.06,10.0,WNW,10.4,16.1,N/A,,Clear,290,2013-03-04 14:15:00
9:35 AM,37.4,15.8,41,30.05,10.0,WNW,11.5,-,N/A,,Clear,290,2013-03-04 14:35:00
9:55 AM,37.4,15.8,41,30.05,10.0,WNW,12.7,-,N/A,,Clear,290,2013-03-04 14:55:00
10:15 AM,37.4,15.8,41,30.05,10.0,NW,10.4,-,N/A,,Clear,310,2013-03-04 15:15:00
10:35 AM,39.2,15.8,39,30.05,10.0,NW,9.2,17.3,N/A,,Clear,310,2013-03-04 15:35:00
10:55 AM,39.2,15.8,39,30.05,10.0,WNW,17.3,23.0,N/A,,Clear,300,2013-03-04 15:55:00
11:15 AM,39.2,14.0,36,30.04,10.0,NW,11.5,20.7,N/A,,Clear,310,2013-03-04 16:15:00
11:35 AM,42.8,14.0,31,30.04,10.0,West,17.3,26.5,N/A,,Clear,280,2013-03-04 16:35:00
11:55 AM,42.8,15.8,34,30.04,10.0,West,11.5,23.0,N/A,,Clear,280,2013-03-04 16:55:00
12:15 PM,42.8,14.0,31,30.03,10.0,WNW,17.3,-,N/A,,Clear,290,2013-03-04 17:15:00
12:35 PM,44.6,14.0,29,30.02,10.0,NW,11.5,17.3,N/A,,Clear,310,2013-03-04 17:35:00
12:55 PM,44.6,14.0,29,30.01,10.0,WNW,16.1,19.6,N/A,,Clear,300,2013-03-04 17:55:00
1:15 PM,44.6,12.2,27,30.00,10.0,NNW,9.2,18.4,N/A,,Clear,330,2013-03-04 18:15:00
1:55 PM,46.4,12.2,25,29.98,10.0,WNW,15.0,24.2,N/A,,Clear,300,2013-03-04 18:55:00
2:15 PM,46.4,12.2,25,29.98,10.0,WNW,13.8,19.6,N/A,,Clear,290,2013-03-04 19:15:00
2:35 PM,48.2,12.2,24,29.98,10.0,NW,9.2,17.3,N/A,,Clear,310,2013-03-04 19:35:00
2:55 PM,48.2,14.0,25,29.98,10.0,WNW,11.5,17.3,N/A,,Clear,290,2013-03-04 19:55:00
3:15 PM,48.2,12.2,24,29.98,10.0,WNW,10.4,19.6,N/A,,Clear,290,2013-03-04 20:15:00
3:35 PM,48.2,15.8,27,29.97,10.0,WNW,15.0,20.7,N/A,,Clear,290,2013-03-04 20:35:00
3:55 PM,50.0,15.8,26,29.97,10.0,NW,8.1,16.1,N/A,,Clear,310,2013-03-04 20:55:00
4:15 PM,48.2,15.8,27,29.97,10.0,West,10.4,-,N/A,,Clear,270,2013-03-04 21:15:00
4:35 PM,48.2,15.8,27,29.97,10.0,WNW,11.5,19.6,N/A,,Clear,290,2013-03-04 21:35:00
4:55 PM,48.2,15.8,27,29.98,10.0,WNW,11.5,-,N/A,,Clear,290,2013-03-04 21:55:00
5:15 PM,48.2,15.8,27,29.98,10.0,West,10.4,-,N/A,,Clear,280,2013-03-04 22:15:00
5:35 PM,46.4,15.8,29,29.99,10.0,WNW,5.8,-,N/A,,Clear,300,2013-03-04 22:35:00
5:55 PM,44.6,17.6,34,29.99,10.0,WNW,6.9,-,N/A,,Clear,290,2013-03-04 22:55:00
6:15 PM,42.8,17.6,36,30.00,10.0,West,3.5,-,N/A,,Clear,270,2013-03-04 23:15:00
6:35 PM,42.8,19.4,39,30.01,10.0,Calm,Calm,-,N/A,,Clear,0,2013-03-04 23:35:00
6:55 PM,39.2,21.2,49,30.02,10.0,Calm,Calm,-,N/A,,Clear,0,2013-03-04 23:55:00
7:15 PM,39.2,21.2,49,30.02,10.0,Calm,Calm,-,N/A,,Clear,0,2013-03-05 00:15:00
7:35 PM,37.4,24.8,60,30.02,10.0,Calm,Calm,-,N/A,,Clear,0,2013-03-05 00:35:00
7:55 PM,37.4,24.8,60,30.02,10.0,Calm,Calm,-,N/A,,Clear,0,2013-03-05 00:55:00
8:15 PM,35.6,24.8,65,30.03,10.0,Calm,Calm,-,N/A,,Clear,0,2013-03-05 01:15:00
8:35 PM,33.8,24.8,70,30.03,10.0,Calm,Calm,-,N/A,,Clear,0,2013-03-05 01:35:00
8:55 PM,33.8,23.0,65,30.04,10.0,Calm,Calm,-,N/A,,Clear,0,2013-03-05 01:55:00
9:15 PM,32.0,24.8,75,30.04,10.0,Calm,Calm,-,N/A,,Clear,0,2013-03-05 02:15:00
9:35 PM,33.8,24.8,70,30.04,10.0,Calm,Calm,-,N/A,,Clear,0,2013-03-05 02:35:00
9:55 PM,33.8,24.8,70,30.05,10.0,Calm,Calm,-,N/A,,Clear,0,2013-03-05 02:55:00
10:15 PM,30.2,24.8,80,30.05,10.0,Calm,Calm,-,N/A,,Clear,0,2013-03-05 03:15:00
10:35 PM,30.2,24.8,80,30.05,10.0,Calm,Calm,-,N/A,,Clear,0,2013-03-05 03:35:00
10:55 PM,30.2,24.8,80,30.05,10.0,Calm,Calm,-,N/A,,Clear,0,2013-03-05 03:55:00
11:15 PM,30.2,23.0,75,30.05,10.0,Calm,Calm,-,N/A,,Clear,0,2013-03-05 04:15:00
11:35 PM,30.2,23.0,75,30.05,10.0,Calm,Calm,-,N/A,,Clear,0,2013-03-05 04:35:00
11:55 PM,28.4,21.2,74,30.04,10.0,Calm,Calm,-,N/A,,Clear,0,2013-03-05 04:55:00